Home > Time Zones > World Clock > Weather > U.S.A. > Adak > Past weeks

Flag for U.S.A. Weather past 2 weeks in Adak, Alaska, U.S.A.

Now
37 °F

More clouds than sun.


Feels Like: 27 °F
Forecast: 37 / 41 °F
Wind: 20 mph from West

Location: Adak


UV Index: 0 (Low)

Visibility: 8 mi


Pressure: 29.48 "Hg

Humidity: 81%

Dew point: 32 °F

Location of AdakLocation

Historic Weather in Adak

°F

Adak temperature yesterday

Maximum temperature yesterday: 43 °F (at 2:56 PM)
Minimum temperature yesterday: 37 °F (at 1:36 AM)
Average temperature yesterday: 40 °F

Past Weeks' High & Low Weather Summary

 TemperatureHumidityPressure
High45 °F (Apr 8, 2:36 PM)93% (Apr 8, 11:36 PM)29.99 "Hg (Apr 8, 11:36 PM)
Low27 °F (Apr 17, 5:36 AM)53% (Apr 13, 6:36 PM)28.88 "Hg (Apr 21, 5:56 AM)
Average38 °F79%29.40 "Hg
* Reported Apr 8 9:16 AM — Apr 23 9:36 AM, Adak, Weather by CustomWeather, © 2014

Note: Actual official high and low records may vary slightly from our data, if they occured in-between our weather recording intervals... More about our weather records

Advertising

Historic Weather Conditions — Data for Previous 24 hours

 ConditionsComfort  
Time TempWeatherWind HumidityBarometerVisibility
9:36 AM
Apr 23
37 °FBroken clouds.22 mph81%29.47 "Hg10 mi
9:16 AM37 °FCloudy.14 mph75%29.46 "Hg10 mi
8:56 AM37 °FBroken clouds.17 mph75%29.46 "Hg10 mi
8:36 AM37 °FMore clouds than sun.14 mph75%29.45 "Hg10 mi
8:16 AM37 °FPartly cloudy.23 mph75%29.45 "Hg8 mi
7:56 AM37 °FMostly cloudy.10 mph75%29.44 "Hg10 mi
7:36 AM36 °FMostly cloudy.14 mph81%29.44 "Hg10 mi
7:16 AM37 °FMostly cloudy.18 mph81%29.43 "Hg9 mi
6:56 AM37 °FMostly cloudy.18 mph87%29.42 "Hg8 mi
6:36 AM36 °FMostly cloudy.16 mph81%29.42 "Hg5 mi
6:16 AM36 °FOvercast.16 mph87%29.41 "Hg9 mi
5:56 AM37 °FOvercast.21 mph75%29.41 "Hg5 mi
5:36 AM37 °FOvercast.23 mph81%29.40 "Hg10 mi
4:56 AM37 °FOvercast.18 mph75%29.39 "Hg8 mi
4:36 AM37 °FOvercast.17 mph75%29.39 "Hg10 mi
3:56 AM37 °FOvercast.21 mph81%29.38 "Hg10 mi
3:36 AM37 °FOvercast.21 mph81%29.38 "Hg10 mi
3:16 AM37 °FMostly cloudy.21 mph75%29.37 "Hg10 mi
2:56 AM37 °FMostly cloudy.22 mph81%29.36 "Hg10 mi
2:36 AM37 °FMostly cloudy.25 mph81%29.36 "Hg9 mi
1:56 AM39 °FOvercast.22 mph81%29.34 "Hg10 mi
1:36 AM39 °FMostly cloudy.22 mph81%29.34 "Hg10 mi
1:16 AM37 °FPartly cloudy.22 mph87%29.34 "Hg8 mi
12:56 AM39 °FMostly cloudy.22 mph81%29.33 "Hg10 mi
12:36 AM39 °FOvercast.18 mph75%29.33 "Hg10 mi
12:16 AM37 °FMostly cloudy.17 mph87%29.33 "Hg10 mi
11:56 PM
Apr 22
37 °FMostly cloudy.14 mph87%29.33 "Hg8 mi
11:36 PM37 °FOvercast.17 mph87%29.32 "Hg5 mi
11:16 PM37 °FOvercast.14 mph87%29.31 "Hg10 mi
10:56 PM39 °FCloudy.17 mph81%29.31 "Hg9 mi
10:36 PM37 °FPartly sunny.13 mph87%29.30 "Hg10 mi
10:16 PM37 °FBroken clouds.16 mph87%29.29 "Hg10 mi
9:56 PM39 °FBroken clouds.21 mph81%29.28 "Hg6 mi
9:36 PM39 °FCloudy.20 mph81%29.28 "Hg5 mi
9:16 PM39 °FCloudy.16 mph81%29.26 "Hg9 mi
8:56 PM39 °FBroken clouds.18 mph81%29.26 "Hg10 mi
8:36 PM41 °FCloudy.20 mph81%29.25 "Hg10 mi
8:16 PM41 °FMostly cloudy.16 mph76%29.24 "Hg10 mi
7:56 PM41 °FMostly cloudy.20 mph81%29.23 "Hg10 mi
7:36 PM41 °FMore clouds than sun.14 mph81%29.22 "Hg8 mi
7:16 PM43 °FCloudy.17 mph76%29.21 "Hg10 mi
6:56 PM43 °FMostly cloudy.14 mph76%29.21 "Hg10 mi
6:36 PM41 °FMostly cloudy.15 mph76%29.20 "Hg10 mi
6:16 PM43 °FMore clouds than sun.9 mph76%29.19 "Hg9 mi
5:56 PM43 °FMostly cloudy.14 mph76%29.17 "Hg8 mi
5:36 PM41 °FCloudy.17 mph81%29.16 "Hg5 mi
5:16 PM41 °FMostly cloudy.16 mph81%29.15 "Hg6 mi
4:56 PM41 °FMostly cloudy.12 mph81%29.14 "Hg7 mi
4:36 PM43 °FMostly cloudy.17 mph76%29.13 "Hg10 mi
4:16 PM41 °FMore clouds than sun.10 mph81%29.12 "Hg4 mi
3:56 PM43 °FPartly sunny.16 mph76%29.11 "Hg9 mi
3:36 PM43 °FBroken clouds.14 mph76%29.10 "Hg10 mi
3:16 PM43 °FBroken clouds.13 mph87%29.09 "Hg10 mi
2:56 PM43 °FMostly cloudy.16 mph76%29.09 "Hg7 mi
2:36 PM41 °FMore clouds than sun.18 mph81%29.09 "Hg9 mi
2:16 PM41 °FBroken clouds.18 mph81%29.08 "Hg7 mi
1:56 PM41 °FMostly cloudy.20 mph81%29.08 "Hg10 mi
1:36 PM41 °FCloudy.15 mph81%29.08 "Hg5 mi
1:16 PM41 °FBroken clouds.15 mph87%29.07 "Hg10 mi
12:56 PM41 °FBroken clouds.14 mph87%29.07 "Hg10 mi
12:16 PM41 °FBroken clouds.16 mph87%29.06 "Hg10 mi
11:56 AM41 °FCloudy.14 mph81%29.06 "Hg9 mi
11:36 AM39 °FMore clouds than sun.13 mph87%29.06 "Hg7 mi
11:16 AM41 °FCloudy.14 mph81%29.06 "Hg10 mi
10:56 AM41 °FMostly cloudy.15 mph81%29.06 "Hg7 mi
10:36 AM41 °FMostly cloudy.18 mph81%29.05 "Hg10 mi
10:16 AM41 °FBroken clouds.14 mph81%29.05 "Hg10 mi
Weather by CustomWeather, © 2014

See weather overview